Weather History for KMCF - November, 2012

Change the Weather History Date:

Friday, November 16, 2012

  Actual Average Record
Temperature  
Mean Temperature 63 °F -  
Max Temperature 69 °F 76 °F 84 °F (1998)
Min Temperature 57 °F 58 °F 43 °F (2007)
Degree Days  
Heating Degree Days 2    
Growing Degree Days 13 (Base 50)    
Moisture  
Dew Point 58 °F    
Average Humidity 92    
Maximum Humidity 100    
Minimum Humidity 68    
Precipitation  
Precipitation 0.00 in - - ()
Sea Level Pressure  
Sea Level Pressure 30.15 in    
Wind  
Wind Speed 7 mph (NE)    
Max Wind Speed 31 mph    
Max Gust Speed 75 mph    
Visibility 9 miles    
Events      
Averages and records for this station are not official NWS values.
T = Trace of Precipitation, MM = Missing Value Source: NWS Daily Summary

Daily Weather History Graph

Daily Weather History Graph

Search for Another Location

Airport or City:

Trip Planner

Search our weather history database for the weather conditions in past years. The results will help you decide how hot, cold, wet, or windy it might be!

Date:

Astronomy

Nov. 16, 2012 Rise Set
Actual Time 6:52 AM EST 5:37 PM EST
Civil Twilight 6:27 AM EST 6:01 PM EST
Nautical Twilight 5:59 AM EST 6:30 PM EST
Astronomical Twilight 5:31 AM EST 6:58 PM EST
Moon 9:41 AM EST (11/16) 8:38 PM EST (11/16)
Length of Visible Light 11h 34m
Length of Day
10h 44m
Waxing Crescent, 11% of the Moon is Illuminated
Nov 16
Waxing Crescent
Nov 20
First Quarter
Nov 28
Full
Dec 6
Last Quarter
Dec 13
New

Hourly Weather History & Observations

Time (EST) Temp. Dew Point Humidity Pressure Visibility Wind Dir Wind Speed Gust Speed Precip Events Conditions
12:15 AM 60.8 °F 59.0 °F 94% 30.16 in 10.0 mi ENE 4.6 mph - N/A   Overcast
12:17 AM 60.8 °F 59.0 °F 94% 30.15 in 10.0 mi ENE 8.1 mph - N/A   Overcast
12:18 AM 60.8 °F 59.0 °F 94% 30.15 in 10.0 mi ENE 8.1 mph - N/A   Overcast
12:39 AM 60.8 °F 59.0 °F 94% 30.16 in 10.0 mi ENE 9.2 mph - N/A   Overcast
12:47 AM 60.8 °F 59.0 °F 94% 30.15 in 10.0 mi ENE 12.7 mph - N/A   Overcast
12:55 AM 59.9 °F 59.5 °F 99% 30.15 in 10.0 mi NE 6.9 mph - N/A   Overcast
1:30 AM 60.8 °F 59.0 °F 94% 30.15 in 10.0 mi ENE 10.4 mph - N/A   Overcast
1:31 AM 60.8 °F 59.0 °F 94% 30.14 in 10.0 mi ENE 10.4 mph - N/A   Overcast
1:38 AM 60.8 °F 59.0 °F 94% 30.14 in 10.0 mi ENE 10.4 mph - N/A   Overcast
1:46 AM 59.0 °F 59.0 °F 100% 30.14 in 10.0 mi ENE 8.1 mph - N/A   Overcast
1:55 AM 59.7 °F 59.0 °F 97% 30.14 in 10.0 mi ENE 5.8 mph - N/A   Overcast
2:55 AM 60.1 °F 59.4 °F 97% 30.16 in 10.0 mi NNE 3.5 mph - N/A   Overcast
3:38 AM 60.8 °F 59.0 °F 94% 30.16 in 10.0 mi NNE 4.6 mph - N/A   Overcast
3:44 AM 59.0 °F 59.0 °F 100% 30.16 in 10.0 mi NE 5.8 mph - N/A   Overcast
3:52 AM 59.0 °F 59.0 °F 100% 30.15 in 10.0 mi NE 5.8 mph - N/A   Overcast
3:53 AM 59.0 °F 59.0 °F 100% 30.15 in 10.0 mi NE 5.8 mph - N/A   Overcast
3:55 AM 59.5 °F 58.6 °F 97% 30.15 in 9.0 mi NE 5.8 mph - N/A   Overcast
4:24 AM 59.0 °F 59.0 °F 100% 30.15 in 10.0 mi NNE 5.8 mph - N/A   Overcast
4:25 AM 59.0 °F 59.0 °F 100% 30.15 in 10.0 mi NE 5.8 mph - N/A   Overcast
4:30 AM 59.0 °F 59.0 °F 100% 30.15 in 8.0 mi NE 6.9 mph - N/A   Overcast
4:34 AM 59.0 °F 59.0 °F 100% 30.15 in 7.0 mi NE 4.6 mph - N/A   Overcast
4:39 AM 59.0 °F 59.0 °F 100% 30.15 in 7.0 mi NE 4.6 mph - N/A   Overcast
4:55 AM 58.5 °F 58.1 °F 99% 30.14 in 10.0 mi NE 3.5 mph - N/A   Overcast
4:58 AM 59.0 °F 59.0 °F 100% 30.14 in 10.0 mi NE 6.9 mph - N/A   Overcast
5:17 AM 59.0 °F 59.0 °F 100% 30.15 in 10.0 mi NE 3.5 mph - N/A   Overcast
5:55 AM 58.5 °F 58.1 °F 99% 30.16 in 10.0 mi NNE 3.5 mph - N/A   Overcast
6:41 AM 59.0 °F 59.0 °F 100% 30.16 in 10.0 mi NE 5.8 mph - N/A   Overcast
6:55 AM 58.3 °F 57.9 °F 99% 30.16 in 8.0 mi NE 6.9 mph - N/A   Overcast
7:02 AM 59.0 °F 57.2 °F 94% 30.16 in 6.0 mi NE 6.9 mph - N/A   Overcast
7:06 AM 59.0 °F 57.2 °F 94% 30.16 in 6.0 mi NNE 6.9 mph - N/A   Overcast
7:09 AM 57.2 °F 57.2 °F 100% 30.16 in 6.0 mi NE 5.8 mph - N/A   Overcast
7:18 AM 57.2 °F 57.2 °F 100% 30.16 in 6.0 mi NE 5.8 mph - N/A   Overcast
7:21 AM 57.2 °F 57.2 °F 100% 30.16 in 6.0 mi NE 6.9 mph - N/A   Overcast
7:29 AM 57.2 °F 57.2 °F 100% 30.16 in 5.0 mi NE 5.8 mph - N/A   Overcast
7:31 AM 57.2 °F 57.2 °F 100% 30.16 in 5.0 mi NE 5.8 mph - N/A   Overcast
7:55 AM 57.7 °F 57.4 °F 99% 30.16 in 6.0 mi NE 5.8 mph - N/A   Overcast
8:00 AM 57.2 °F 57.2 °F 100% 30.17 in 7.0 mi NE 8.1 mph - N/A   Overcast
8:02 AM 57.2 °F 57.2 °F 100% 30.17 in 7.0 mi ENE 8.1 mph - N/A   Overcast
8:06 AM 57.2 °F 57.2 °F 100% 30.17 in 7.0 mi ENE 6.9 mph - N/A   Overcast
8:37 AM 59.0 °F 57.2 °F 94% 30.17 in 7.0 mi NE 8.1 mph - N/A   Overcast
8:55 AM 58.6 °F 58.3 °F 99% 30.18 in 9.0 mi ENE 9.2 mph - N/A   Overcast
9:07 AM 59.0 °F 59.0 °F 100% 30.18 in 10.0 mi ENE 11.5 mph - N/A   Overcast
9:59 AM 59.4 °F 57.7 °F 94% 30.20 in 10.0 mi NE 6.9 mph - N/A   Overcast
10:28 AM 60.8 °F 59.0 °F 94% 30.20 in 10.0 mi NE 8.1 mph - N/A   Overcast
10:40 AM 60.8 °F 59.0 °F 94% 30.20 in 10.0 mi NNE 8.1 mph - N/A   Overcast
10:55 AM 61.2 °F 58.3 °F 90% 30.20 in 10.0 mi NNE 5.8 mph - N/A   Overcast
11:55 AM 61.9 °F 58.5 °F 89% 30.19 in 10.0 mi NNE 5.8 mph - N/A   Overcast
12:04 PM 62.6 °F 59.0 °F 88% 30.19 in 10.0 mi NNE 4.6 mph - N/A   Overcast
12:55 PM 64.6 °F 58.6 °F 81% 30.16 in 10.0 mi NE 9.2 mph - N/A   Overcast
1:14 PM 66.2 °F 59.0 °F 78% 30.13 in 10.0 mi East 13.8 mph - N/A   Scattered Clouds
1:55 PM 67.1 °F 59.2 °F 76% 30.13 in 10.0 mi East 11.5 mph - N/A   Clear
2:55 PM 67.1 °F 59.4 °F 76% 30.12 in 10.0 mi ENE 8.1 mph - N/A   Partly Cloudy
3:55 PM 69.1 °F 59.7 °F 72% 30.11 in - Variable 4.6 mph - N/A   Clear
3:56 PM 69.8 °F 59.0 °F 68% 30.11 in - ESE 3.5 mph - N/A   Clear
4:03 PM 69.8 °F 59.0 °F 68% 30.11 in 1.0 mi Calm Calm - N/A   Haze
4:04 PM 68.0 °F 59.0 °F 73% 30.11 in 2.5 mi Calm Calm - N/A   Haze
4:05 PM 68.0 °F 59.0 °F 73% 30.11 in 5.0 mi East 20.7 mph 74.8 mph N/A   Haze
4:06 PM 68.0 °F 59.0 °F 73% 30.11 in 8.0 mi East 31.1 mph - N/A   Squalls
4:07 PM 68.0 °F 59.0 °F 73% 30.11 in 10.0 mi North - - N/A   Squalls
4:55 PM 66.7 °F 58.5 °F 75% 30.12 in 10.0 mi East 8.1 mph - N/A   Clear
5:46 PM 62.6 °F 57.2 °F 82% 30.12 in 10.0 mi NE 4.6 mph - N/A   Mostly Cloudy
5:55 PM 63.0 °F 57.7 °F 83% 30.12 in 10.0 mi NE 4.6 mph - N/A   Mostly Cloudy
6:03 PM 62.6 °F 57.2 °F 82% 30.12 in 10.0 mi NE 4.6 mph - N/A   Scattered Clouds
6:55 PM 60.6 °F 57.0 °F 88% 30.14 in 10.0 mi North 3.5 mph - N/A   Partly Cloudy
7:07 PM 60.8 °F 57.2 °F 88% 30.14 in 10.0 mi NE 3.5 mph - N/A   Mostly Cloudy
7:55 PM 61.7 °F 57.9 °F 87% 30.15 in 10.0 mi NNE 3.5 mph - N/A   Mostly Cloudy
7:58 PM 60.8 °F 57.2 °F 88% 30.15 in 10.0 mi NE 4.6 mph - N/A   Scattered Clouds
8:01 PM 60.8 °F 57.2 °F 88% 30.15 in 10.0 mi NE 3.5 mph - N/A   Mostly Cloudy
8:05 PM 60.8 °F 57.2 °F 88% 30.15 in 10.0 mi NE 3.5 mph - N/A   Mostly Cloudy
8:55 PM 60.4 °F 56.8 °F 88% 30.14 in 10.0 mi NE 5.8 mph - N/A   Clear
9:55 PM 59.2 °F 55.9 °F 89% 30.15 in 10.0 mi NNE 4.6 mph - N/A   Clear
10:55 PM 58.1 °F 55.6 °F 91% 30.16 in 10.0 mi NNE 6.9 mph - N/A   Clear
11:19 PM 57.2 °F 55.4 °F 94% 30.16 in 10.0 mi NNE 4.6 mph - N/A   Mostly Cloudy
11:31 PM 59.0 °F 55.4 °F 88% 30.15 in 10.0 mi NNE 5.8 mph - N/A   Mostly Cloudy
11:55 PM 59.0 °F 56.8 °F 93% 30.14 in 10.0 mi NE 6.9 mph - N/A   Overcast